Location: Allen Fire Department Station 4
(33.1073°N, 96.6988°W)
Time: 08:07:13
(UTC+00:00)

SJ 16-02 - Visible Passes

Search period start: 26 June 2022 00:00
Search period end: 06 July 2022 00:00
Orbit: 604 x 615 km, 75.0° (Epoch: 25 June)

Date Brightness Start Highest point End Pass type
(mag) Time Alt. Az. Time Alt. Az. Time Alt. Az.
26 Jun 2.5 08:08:51 10° NNW 08:11:37 38° NNW 08:11:37 38° NNW visible
27 Jun 4.0 06:46:41 10° NNE 06:48:26 13° ENE 06:48:26 13° ENE visible
27 Jun 3.1 08:23:29 10° NNW 08:25:21 23° NW 08:25:21 23° NW visible
28 Jun 3.6 06:59:53 10° NNE 07:02:13 22° NE 07:02:13 22° NE visible
28 Jun 3.8 08:38:37 10° NW 08:39:09 12° NW 08:39:09 12° NW visible
29 Jun 3.3 07:13:50 10° N 07:16:04 27° N 07:16:04 27° N visible
30 Jun 3.4 07:28:10 10° NNW 07:29:56 24° NNW 07:29:56 24° NNW visible
01 Jul 4.0 06:05:40 10° NNE 06:06:56 14° NE 06:06:56 14° NE visible
01 Jul 3.8 07:42:53 10° NNW 07:43:52 16° NW 07:43:52 16° NW visible
02 Jul 3.7 06:19:05 10° N 06:20:53 20° NNE 06:20:53 20° NNE visible
03 Jul 3.6 06:33:05 10° N 06:34:52 23° N 06:34:52 23° N visible
04 Jul 3.7 06:47:29 10° NNW 06:48:53 20° NNW 06:48:53 20° NNW visible
05 Jul 3.9 05:24:42 10° NNE 05:26:00 14° NE 05:26:00 14° NE visible
05 Jul 4.0 07:02:16 10° NW 07:02:56 14° NW 07:02:56 14° NW visible
